When you browse on this site, cookies collect data to enhance your experience and personalize the content and advertising you see.
Visit our Privacy Policy to learn more. By continuing to use the site, you agree to this use of cookies and data.
  • In Romania
  • List of Countries
  • For 7 days
  • Water Temperature
  • Satellite Maps
  • Weather Map
  • Weather Widgets
  • user-avatar
    Login

    Hourly Weather Spring Garden

    Today, 12 December, Wednesday

    Time Temperature Precipitation Wind Pressure Humidity
    00:00 +3°C° 0 mm 1 mps 647 mmHg 87%
    01:00 +3°C° 0 mm 1 mps 648 mmHg 88%
    02:00 +3°C° 0 mm 1 mps 648 mmHg 89%
    03:00 +2°C° 0 mm 1 mps 648 mmHg 90%
    04:00 +2°C° 0 mm 1 mps 648 mmHg 91%
    05:00 +2°C° 0 mm 1 mps 649 mmHg 91%
    06:00 +1°C° 0 mm 1 mps 650 mmHg 92%
    07:00 +1°C° 0 mm 1 mps 650 mmHg 92%
    08:00 +2°C° 0 mm 1 mps 651 mmHg 84%
    09:00 +3°C° 0 mm 2 mps 652 mmHg 76%
    10:00 +5°C° 0 mm 2 mps 653 mmHg 68%
    11:00 +6°C° 0 mm 2 mps 653 mmHg 61%
    12:00 +7°C° 0 mm 2 mps 652 mmHg 55%
    13:00 +8°C° 0 mm 2 mps 652 mmHg 48%
    14:00 +8°C° 0 mm 1 mps 652 mmHg 54%
    15:00 +7°C° 0 mm 1 mps 651 mmHg 60%
    16:00 +5°C° 0 mm 1 mps 651 mmHg 66%
    17:00 +4°C° 0 mm 1 mps 651 mmHg 69%
    18:00 +2°C° 0 mm 1 mps 650 mmHg 72%
    19:00 +1°C° 0 mm 1 mps 650 mmHg 74%
    20:00 +1°C° 0 mm 1 mps 651 mmHg 72%
    21:00 +1°C° 0 mm 1 mps 651 mmHg 70%
    22:00 +1°C° 0 mm 1 mps 651 mmHg 68%
    23:00 +1°C° 0 mm 1 mps 651 mmHg 67%

    Tomorrow, 13 December, Thursday

    Time Temperature Precipitation Wind Pressure Humidity
    00:00 +1°C° 0 mm 1 mps 651 mmHg 65%
    01:00 +1°C° 0 mm 1 mps 651 mmHg 64%
    02:00 +1°C° 0 mm 1 mps 651 mmHg 62%
    03:00 +1°C° 0 mm 1 mps 651 mmHg 60%
    04:00 +1°C° 0 mm 1 mps 651 mmHg 59%
    05:00 +1°C° 0 mm 1 mps 651 mmHg 58%
    06:00 +1°C° 0 mm 1 mps 651 mmHg 57%
    07:00 +1°C° 0 mm 1 mps 651 mmHg 56%
    08:00 +4°C° 0 mm 1 mps 652 mmHg 52%
    09:00 +6°C° 0 mm 1 mps 653 mmHg 47%
    10:00 +9°C° 0 mm 1 mps 653 mmHg 43%
    11:00 +10°C° 0 mm 1 mps 653 mmHg 42%
    12:00 +11°C° 0 mm 1 mps 653 mmHg 42%
    13:00 +12°C° 0 mm 1 mps 652 mmHg 41%
    14:00 +11°C° 0 mm 1 mps 651 mmHg 48%
    15:00 +9°C° 0 mm 1 mps 650 mmHg 55%
    16:00 +7°C° 0 mm 1 mps 650 mmHg 63%
    17:00 +6°C° 0 mm 1 mps 649 mmHg 65%
    18:00 +5°C° 0 mm 1 mps 649 mmHg 67%
    19:00 +4°C° 0 mm 1 mps 649 mmHg 69%
    20:00 +4°C° 0 mm 1 mps 648 mmHg 69%
    21:00 +3°C° 0 mm 1 mps 648 mmHg 68%
    22:00 +2°C° 0 mm 2 mps 648 mmHg 67%
    23:00 +2°C° 0 mm 2 mps 648 mmHg 66%

    Day after tomorrow, 14 December, Friday

    Time Temperature Precipitation Wind Pressure Humidity
    00:00 +2°C° 0 mm 2 mps 648 mmHg 66%
    01:00 +2°C° 0 mm 2 mps 647 mmHg 65%
    02:00 +2°C° 0 mm 2 mps 647 mmHg 64%
    03:00 +2°C° 0 mm 2 mps 647 mmHg 63%
    04:00 +2°C° 0 mm 2 mps 646 mmHg 62%
    05:00 +2°C° 0 mm 2 mps 646 mmHg 62%
    06:00 +2°C° 0 mm 2 mps 646 mmHg 61%
    07:00 +2°C° 0 mm 2 mps 645 mmHg 61%
    08:00 +3°C° 0 mm 3 mps 646 mmHg 55%
    09:00 +5°C° 0 mm 4 mps 646 mmHg 50%
    10:00 +6°C° 0 mm 4 mps 646 mmHg 44%
    11:00 +7°C° 0 mm 5 mps 646 mmHg 45%
    12:00 +7°C° 0 mm 6 mps 645 mmHg 47%
    13:00 +6°C° 0 mm 7 mps 645 mmHg 48%
    14:00 +5°C° 0.2 mm 6 mps 645 mmHg 55%
    15:00 +5°C° 0.2 mm 5 mps 645 mmHg 62%
    16:00 +3°C° 0.2 mm 5 mps 644 mmHg 69%
    17:00 +3°C° 0.4 mm 3 mps 645 mmHg 76%
    18:00 +3°C° 0.4 mm 2 mps 645 mmHg 83%
    19:00 +3°C° 0.4 mm 1 mps 646 mmHg 90%
    20:00 +3°C° 0.1 mm 1 mps 646 mmHg 90%
    21:00 +3°C° 0.1 mm 1 mps 646 mmHg 90%
    22:00 +4°C° 0.1 mm 1 mps 647 mmHg 90%
    23:00 +4°C° 0.1 mm 1 mps 647 mmHg 89%

    15 December, Saturday

    Time Temperature Precipitation Wind Pressure Humidity
    00:00 +4°C° 0.1 mm 1 mps 647 mmHg 88%
    01:00 +4°C° 0.1 mm 1 mps 646 mmHg 88%
    02:00 +4°C° 0 mm 1 mps 646 mmHg 87%
    03:00 +3°C° 0 mm 1 mps 646 mmHg 86%
    04:00 +3°C° 0 mm 1 mps 646 mmHg 85%
    05:00 +3°C° 0 mm 1 mps 646 mmHg 84%
    06:00 +3°C° 0 mm 1 mps 646 mmHg 82%
    07:00 +3°C° 0 mm 1 mps 646 mmHg 81%
    08:00 +4°C° 0 mm 1 mps 646 mmHg 76%
    09:00 +5°C° 0 mm 1 mps 647 mmHg 72%
    10:00 +6°C° 0 mm 1 mps 647 mmHg 67%
    11:00 +6°C° 0 mm 2 mps 647 mmHg 63%
    12:00 +7°C° 0 mm 2 mps 647 mmHg 59%
    13:00 +8°C° 0 mm 2 mps 646 mmHg 55%
    14:00 +7°C° 0 mm 2 mps 646 mmHg 59%
    15:00 +7°C° 0 mm 2 mps 646 mmHg 63%
    16:00 +7°C° 0 mm 1 mps 646 mmHg 66%
    17:00 +5°C° 0 mm 1 mps 646 mmHg 69%
    18:00 +4°C° 0 mm 1 mps 646 mmHg 72%
    19:00 +3°C° 0 mm 1 mps 646 mmHg 75%
    20:00 +2°C° 0 mm 1 mps 646 mmHg 73%
    21:00 +2°C° 0 mm 1 mps 646 mmHg 72%
    22:00 +2°C° 0 mm 1 mps 646 mmHg 70%
    23:00 +2°C° 0 mm 1 mps 646 mmHg 70%

    16 December, Sunday

    Time Temperature Precipitation Wind Pressure Humidity
    00:00 +2°C° 0 mm 1 mps 646 mmHg 69%
    01:00 +2°C° 0 mm 1 mps 646 mmHg 69%
    02:00 +2°C° 0 mm 1 mps 645 mmHg 68%
    03:00 +2°C° 0 mm 1 mps 645 mmHg 68%
    04:00 +2°C° 0 mm 1 mps 645 mmHg 67%
    05:00 +2°C° 0 mm 2 mps 645 mmHg 67%
    06:00 +2°C° 0 mm 2 mps 645 mmHg 66%
    07:00 +2°C° 0 mm 2 mps 645 mmHg 65%
    08:00 +4°C° 0.1 mm 2 mps 646 mmHg 64%
    09:00 +4°C° 0.1 mm 3 mps 646 mmHg 62%
    10:00 +5°C° 0.1 mm 3 mps 646 mmHg 61%
    11:00 +5°C° 0.2 mm 4 mps 646 mmHg 62%
    12:00 +5°C° 0.2 mm 4 mps 646 mmHg 62%
    13:00 +5°C° 0.2 mm 4 mps 645 mmHg 63%
    14:00 +5°C° 0.1 mm 4 mps 645 mmHg 64%
    15:00 +4°C° 0.1 mm 4 mps 644 mmHg 65%
    16:00 +4°C° 0.1 mm 3 mps 644 mmHg 66%
    17:00 +3°C° 0.6 mm 3 mps 644 mmHg 69%
    18:00 +3°C° 0.6 mm 3 mps 644 mmHg 72%
    19:00 +2°C° 0.6 mm 3 mps 644 mmHg 76%
    20:00 +3°C° 1.2 mm 2 mps 645 mmHg 80%
    21:00 +3°C° 1.2 mm 2 mps 645 mmHg 85%
    22:00 +2°C° 1.2 mm 2 mps 645 mmHg 90%
    23:00 +2°C° 0.4 mm 2 mps 646 mmHg 91%

    17 December, Monday

    Time Temperature Precipitation Wind Pressure Humidity
    00:00 +3°C° 0.4 mm 1 mps 646 mmHg 93%
    01:00 +3°C° 0.4 mm 1 mps 646 mmHg 95%
    02:00 +2°C° 0.1 mm 1 mps 646 mmHg 95%
    03:00 +2°C° 0.1 mm 1 mps 646 mmHg 95%
    04:00 +2°C° 0.1 mm 1 mps 646 mmHg 96%
    05:00 +1°C° 0 mm 1 mps 647 mmHg 96%
    06:00 +1°C° 0 mm 1 mps 647 mmHg 96%
    07:00 0°C° 0 mm 1 mps 647 mmHg 96%
    08:00 +2°C° 0 mm 1 mps 648 mmHg 90%
    09:00 +2°C° 0 mm 0 mps 649 mmHg 85%
    10:00 +4°C° 0 mm 0 mps 650 mmHg 79%
    11:00 +5°C° 0 mm 0 mps 650 mmHg 77%
    12:00 +6°C° 0 mm 0 mps 649 mmHg 74%
    13:00 +7°C° 0 mm 0 mps 649 mmHg 72%
    14:00 +6°C° 0 mm 0 mps 649 mmHg 76%
    15:00 +5°C° 0 mm 0 mps 649 mmHg 80%
    16:00 +4°C° 0 mm 0 mps 649 mmHg 85%
    17:00 +4°C° 0 mm 1 mps 649 mmHg 87%
    18:00 +2°C° 0 mm 1 mps 649 mmHg 89%
    19:00 +1°C° 0 mm 1 mps 649 mmHg 91%
    20:00 +1°C° 0 mm 1 mps 649 mmHg 90%
    21:00 +1°C° 0 mm 1 mps 649 mmHg 89%
    22:00 +1°C° 0 mm 1 mps 649 mmHg 88%
    23:00 0°C° 0 mm 1 mps 649 mmHg 87%
    Show more